Miscellaneous Local Product
Issued by NWS North Platte, NE

Home | Current Version | Previous Version | Text Only | Print | Product List | Glossary On
Versions: 1 2 3 4 5 6 7 8 9 10 11 12 13 14 15 16 17 18 19 20 21 22 23 24 25 26 27 28 29 30 31 32 33 34 35 36 37 38 39 40 41 42 43 44 45 46 47 48 49 50
034
AXUS43 KLBF 182310
MISLBF


WESTERN AND NORTH CENTRAL NEBRASKA HOURLY WEATHER ROUNDUP
NATIONAL WEATHER SERVICE NORTH PLATTE NE
600 PM CDT WED APR 18 2018

NOTE: "FAIR" INDICATES FEW OR NO CLOUDS BELOW 12,000 FEET WITH NO
SIGNIFICANT WEATHER AND/OR OBSTRUCTIONS TO VISIBILITY.

NOTE: STATIONS NOT REPORTING VARIABLES SUCH AS SKY/WEATHER OR
PRESSURE ARE PROVIDED BY RAWS AND APRS NETWORKS AND ARE NOT UNDER
NATIONAL WEATHER SERVICE QUALITY CONTROL.

...OBSERVATIONS IN AND NEAR THE EASTERN PANHANDLE OF NEBRASKA...

CITY           SKY/WX    TMP DP  RH WIND       PRES   REMARKS
PINE RIDGE     CLOUDY    54  25  32 N17G24    30.18R
GORDON         MOCLDY    54  26  34 N18G26    30.17R
CHADRON        CLOUDY    54  26  34 NE12      30.18R
ALLIANCE       MOSUNNY   55  23  28 NW23G29   30.17S
SIDNEY         MOSUNNY   55  19  24 N12       30.21S
CRESCENT LAKE    N/A     55  23  28 NW18G29     N/A
$$

...OBSERVATIONS IN NORTHERN NEBRASKA AND FAR SOUTHERN SOUTH DAKOTA...

CITY           SKY/WX    TMP DP  RH WIND       PRES   REMARKS
WINNER         CLOUDY    37  32  82 NW8       30.21S WCI  31
VALENTINE      SUNNY     47  33  58 N15       30.20R
AINSWORTH      MOSUNNY   41  33  74 N14G20    30.21S
O`NEILL        CLOUDY    39  34  81 W14       30.19S WCI  31
THEDFORD       SUNNY     49  35  56 N14G20    30.19S
BROKEN BOW     PTSUNNY   46  33  60 NW15      30.19S
ORD            CLOUDY    42  32  67 NW17      30.19S
ALBION         CLOUDY    40  31  69 NW13      30.18S WCI  33
VALENTINE NWR    N/A     45  32  61 N14G22      N/A
HALSEY           N/A     49  33  53 N9G20       N/A
BUTTE            N/A     35  33  94 W15         N/A  WCI  25
CHAMBERS         N/A     39  32  76 S7          N/A  WCI  34
EWING            N/A     37  34  88 NW9         N/A  WCI  30
$$

...OBSERVATIONS IN SOUTHWEST NEBRASKA AND FAR NORTHEAST COLORADO...

CITY           SKY/WX    TMP DP  RH WIND       PRES   REMARKS
WRAY           FAIR      59  18  20 NW20      30.21S
HOLYOKE        FAIR      61  21  21 NW21G28   30.20S
IMPERIAL       PTSUNNY   59  22  24 NW21G31   30.18R
OGALLALA       FAIR      58  29  32 N15       30.18S
NORTH PLATTE   MOSUNNY   56  32  40 NE21G31   30.17R
MCCOOK         PTSUNNY   60  27  28 N25G35    30.16R
LEXINGTON      SUNNY     52  32  46 N23       30.18S
STAPLETON        N/A     50  35  56 NE7G15      N/A
GOTHENBURG       N/A     51  31  45 N18         N/A
CALLAWAY         N/A     50  36  58 N24         N/A
$$

...OBSERVATIONS IN CENTRAL LINCOLN COUNTY AREA...

CITY           SKY/WX    TMP DP  RH WIND       PRES   REMARKS
N.P. AIRPORT   MOSUNNY   56  32  40 NE21G31   30.17R
N.P. DOWNTOWN    N/A     54  33  45 NE12G20     N/A
N.P. SOUTHEAST   N/A     55  33  43 N9G18       N/A
N.P. HILLCREST   N/A     54  33  45 N18G26      N/A
$$

...OBSERVATIONS ACROSS THE ROCKIES AND WESTERN HIGH PLAINS...

CITY           SKY/WX    TMP DP  RH WIND       PRES   REMARKS
RAPID CITY     MOSUNNY   53  24  32 NW20G29   30.19R
SCOTTSBLUFF    SUNNY     57  23  26 NW16      30.20F
CHEYENNE       SUNNY     49   9  19 N10G17    30.20F
DENVER         MOSUNNY   56  10  16 NE7       30.20S
BERTHOUD PASS  FAIR      23  14  68 S16G22    30.30S WCI  10
MONARCH PASS   SUNNY     34   0  23 NE12G18   30.39S WCI  25
ASPEN          SUNNY     53   5  14 NW7       30.14F
STEAMBOAT      FAIR      47   9  21 NE3       30.18F
LARAMIE        MOSUNNY   47  10  22 N8        30.20F
CASPER         SUNNY     48  20  32 VRB7      30.20F
$$

...OBSERVATIONS ACROSS THE NORTHERN PLAINS...

CITY           SKY/WX    TMP DP  RH WIND       PRES   REMARKS
BISMARCK       PTSUNNY   49  29  46 N10       30.22R
FARGO          FAIR      52  31  44 NE16      30.13R
PIERRE         MOSUNNY   47  38  71 NW12      30.19S
SIOUX FALLS    FLURRIES  35  29  78 N15       30.14R WCI  25
$$

...OBSERVATIONS ACROSS THE CENTRAL AND SOUTHERN PLAINS...

CITY           SKY/WX    TMP DP  RH WIND       PRES   REMARKS
OMAHA          CLOUDY    38  31  76 NW14      30.14R WCI  30
GRAND ISLAND   CLOUDY    43  30  60 N20       30.20R
KANSAS CITY    CLOUDY    44  27  51 NW14      30.09R
WICHITA        MOSUNNY   59  26  28 N23G35    30.16R
DODGE CITY     SUNNY     64  22  20 N22G33    30.16R
OKLAHOMA CITY  MOSUNNY   69  22  16 N17G30    30.12R
DALLAS         MOSUNNY   77  29  17 N20       30.07R
AMARILLO       SUNNY     66   7  10 N15G24    30.23R
$$




USA.gov is the U.S. government's official web portal to all federal, state and local government web resources and services.